Flag for Pakistan Weather past 2 weeks in Narowal, Pakistan

Now
108 °F

Clear.


Feels Like: 104 °F
Forecast: 77 / 107 °F
Wind: 3 mph from North

Location: Amritsar Airport

Current Time: May 23, 2015 at 2:21:16 PM

Latest Report: May 23, 2015 at 1:30 PM


Visibility: 4 mi

Pressure: 29.47 "Hg

Humidity: 13%

Dew point: 46 °F

Location of NarowalLocation

Historic Weather in Narowal — Graph

°F

Narowal temperature yesterday

Maximum temperature yesterday: 108 °F (at 12:30 PM)
Minimum temperature yesterday: 73 °F (at 5:30 AM)
Average temperature yesterday: 95 °F

Past Weeks' High & Low Weather Summary

 TemperatureHumidityPressure
High108 °F (May 8, 1:30 PM)100% (May 13, 1:30 AM)29.89 "Hg (May 13, 1:30 AM)
Low68 °F (May 13, 1:30 AM)10% (May 8, 2:00 PM)29.47 "Hg (May 22, 4:00 PM)
Average87 °F46%29.66 "Hg
* Reported May 8 1:00 PM — May 23 1:00 PM, Narowal, Weather by CustomWeather, © 2015

Note: Actual official high and low records may vary slightly from our data, if they occured in-between our weather recording intervals... More about our weather records

Advertising

Narowal weather history for previous 24 hours

 ConditionsComfort  
Time TempWeatherWind HumidityBarometerVisibility
1:00 PM
Sat, May 23
106 °FClear.3 mph13%29.47 "Hg4 mi
12:30 PM106 °FScattered clouds.2 mph13%29.47 "Hg4 mi
12:00 PM106 °FPartly sunny.2 mph14%29.50 "Hg4 mi
11:30 AM104 °FPartly sunny.3 mph15%29.50 "Hg4 mi
11:00 AM102 °FPartly sunny.2 mph17%29.50 "Hg3 mi
10:30 AM100 °FPartly sunny.6 mph17%29.50 "Hg3 mi
9:30 AM97 °FPartly sunny.2 mph23%29.50 "Hg3 mi
8:30 AM93 °FScattered clouds.7 mph23%29.50 "Hg3 mi
8:00 AM91 °FScattered clouds.3 mph26%29.50 "Hg3 mi
7:00 AM84 °FScattered clouds.8 mph40%29.50 "Hg2 mi
6:30 AM81 °FScattered clouds.2 mph45%29.53 "Hg2 mi
6:00 AM77 °FPassing clouds.No wind54%29.50 "Hg2 mi
5:30 AM73 °FPassing clouds.2 mph57%29.50 "Hg2 mi
5:00 AM75 °FPassing clouds.No wind50%29.50 "Hg2 mi
4:30 AM77 °FPassing clouds.2 mph47%29.47 "Hg2 mi
4:00 AM75 °FPassing clouds.No wind54%29.47 "Hg2 mi
3:30 AM77 °FPassing clouds.No wind47%29.47 "Hg2 mi
3:00 AM77 °FPassing clouds.No wind47%29.47 "Hg2 mi
2:30 AM77 °FPassing clouds.No wind47%29.47 "Hg2 mi
2:00 AM81 °FPassing clouds.No wind37%29.47 "Hg2 mi
1:30 AM82 °FPassing clouds.No wind35%29.50 "Hg2 mi
1:00 AM82 °FPassing clouds.5 mph35%29.50 "Hg2 mi
12:30 AM82 °FPassing clouds.No wind40%29.50 "Hg2 mi
12:00 AM84 °FPassing clouds.No wind35%29.53 "Hg2 mi
11:30 PM
Fri, May 22
86 °FPassing clouds.No wind31%29.53 "Hg2 mi
11:00 PM90 °FPassing clouds.5 mph26%29.53 "Hg2 mi
10:30 PM88 °FPassing clouds.7 mph29%29.53 "Hg2 mi
10:00 PM88 °FPassing clouds.6 mph33%29.53 "Hg2 mi
9:30 PM95 °FPassing clouds.8 mph25%29.53 "Hg2 mi
9:00 PM93 °FPassing clouds.2 mph30%29.53 "Hg2 mi
8:30 PM97 °FPassing clouds.6 mph23%29.50 "Hg2 mi
8:00 PM97 °FPassing clouds.No wind28%29.50 "Hg2 mi
7:30 PM97 °FPassing clouds.No wind25%29.50 "Hg2 mi
7:00 PM99 °FPassing clouds.No wind22%29.47 "Hg3 mi
6:30 PM100 °FDuststorm.No wind20%29.47 "Hg3 mi
6:00 PM102 °FDuststorm.No wind18%29.47 "Hg3 mi
5:30 PM106 °FDuststorm.6 mph13%29.47 "Hg3 mi
5:00 PM106 °FDuststorm.8 mph13%29.47 "Hg3 mi
4:30 PM106 °FPassing clouds.8 mph13%29.47 "Hg3 mi
4:00 PM108 °FDuststorm.5 mph13%29.47 "Hg3 mi
3:30 PM108 °FDuststorm.9 mph13%29.50 "Hg3 mi
3:00 PM108 °FDuststorm.9 mph12%29.50 "Hg3 mi
2:30 PM108 °FDuststorm.6 mph13%29.50 "Hg3 mi
Weather by CustomWeather, © 2015

See weather overviewHow to use our weather pages